User: anonymous   Login
Location: Unspecified
(0.0000°N, 0.0000°E)
Time: 13:27:26
(UTC+00:00)
Language:

SPOT 5 - Orbit

View from above orbital plane
View from above orbital plane
View from above satellite
View from above satellite

Ground track
Ground track

The orbit data is extracted from the following two-line orbital elements,

1 27421U 02021A   18294.09556675  .00000103  00000-0  34506-4 0  9994
2 27421  98.3439   1.1448 0134444 264.3717  94.2150 14.51955946856900
Epoch (UTC): 21 October 2018 02:17:36
Eccentricity: 0.0134444
inclination: 98.3439°
perigee height: 624 km
apogee height: 814 km
right ascension of ascending node: 1.1448°
argument of perigee: 264.3717°
revolutions per day: 14.51955946
mean anomaly at epoch: 94.2150°
orbit number at epoch: 85690

The dashed part of the orbit path shows where the satellite is in the earth's shadow,  

DLR